Regional Weather Roundup
Issued by NWS Midland/Odessa, TX

Skip options and go directly to product.
Home | Oldest Version | Previous Version | Current Version | All | Text Only | Save Text | Print | Product List | Glossary Off

Skip product version selection by date and time.   

372
ASUS44 KMAF 040701
RWRMAF
MIDLAND AREA WEATHER ROUNDUP
NATIONAL WEATHER SERVICE MIDLAND TX
200 AM CDT MON MAY 04 2015

...IN SOUTHWEST TEXAS AND SOUTHEAST NEW MEXICO...

CITY           SKY/WX    TMP DP  RH WIND       PRES   REMARKS
ALPINE         PTCLDY    62  54  76 SE6       30.03F
ANDREWS        FAIR      64  55  72 S7        29.95R
ARTESIA        CLEAR     64  45  48 S9        29.92S
BIG SPRING     CLOUDY    74  56  52 SE17G24   29.95F
CARLSBAD       CLEAR     64  49  57 S10       29.91S
DRYDEN           N/A     71  59  65 E16       29.89F
FORT STOCKTON  LGT RAIN  65  58  78 SW5       29.97R
GUAD PASS      NOT AVBL
HOBBS          MOCLDY    59  57  94 E6        29.96S
MARFA          PTCLDY    57  54  88 NE6       30.01F
MIDLAND AIRPK  CLOUDY    72  56  58 SE14      29.93S
MIDLAND INTL   MOCLDY    71  56  58 S18       29.92F
ODESSA         MOCLDY    70  55  59 S20G25    29.93R
PECOS          CLOUDY    67  58  73 E13       29.92F
PRESIDIO       FAIR      73  56  55 NE14G23   29.86S
SEMINOLE       MOCLDY    60  55  81 NE3       29.97R
SNYDER         MOCLDY    65  54  65 SE12      29.95F
WINK           MOCLDY    70  55  59 SE17G29   29.90F
$$
...OTHER STATIONS IN TEXAS...

CITY           SKY/WX    TMP DP  RH WIND       PRES   REMARKS
ABILENE        MOCLDY    68  54  60 S13       29.97S
AMARILLO       LGT RAIN  63  49  60 W8        30.00R
AUSTIN         PTCLDY    63  62  97 S5        30.02F
BROWNSVILLE    PTCLDY    75  70  84 SE12      29.96S
CORPUS CHRISTI MOCLDY    74  67  78 SE16      29.98S
DALLAS FTW     MOCLDY    69  60  73 S15       29.98S
DEL RIO        MOCLDY    73  65  75 SE14      29.91S
EL PASO        MOCLDY    70  48  45 CALM      29.93R
HOUSTON INT    PTCLDY    63  60  90 CALM      30.04S
LUBBOCK        MOCLDY    68  52  56 S10       29.96F
SAN ANGELO     PTCLDY    69  57  65 S9        29.95F
SAN ANTONIO    CLOUDY    70  65  84 SE12      30.02S
WACO           PTCLDY    67  62  84 S12       30.01F
WICHITA FALLS  NOT AVBL
$$
...OTHER LOCATIONS IN NEW MEXICO...

CITY           SKY/WX    TMP DP  RH WIND       PRES   REMARKS
ALAMAGORDO     MOCLDY    68  37  32 S7        29.91F
ALBUQUERQUE    MOCLDY    61  37  41 SW8       30.02R
CANNON AFB     LGT RAIN  57  52  82 N14       30.03R
CLOVIS         CLOUDY    63  46  55 NW15      30.02S
HOLLOMAN AFB   NOT AVBL
ROSWELL        PTCLDY    57  45  64 S8        29.93R
RUIDOSO        PTCLDY    54  28  37 N7        30.08F
SANTA FE       MOCLDY    51  38  60 N13       30.06R
TRUTH OR CONSE PTCLDY    62  34  35 NW8       29.95R
TUCUMCARI      LGT RAIN  61  48  62 S18       29.97F
$$

USA.gov is the U.S. government's official web portal to all federal, state and local government web resources and services.